[[{"header":{"parameterUnit":"m.s-1","parameterCategory":1,"la1":30.2991,"la2":30.254,"lo1":-89.0895,"lo2":-89.0444,"dy":0.0017,"dx":0.0017,"nx":28,"ny":28,"refTime":"2024-03-12T09:00:00:Z","depth":0,"parameterNumber":2,"parameterNumberName":"U-component_of_WINDS"},"data":[0,0,0,0,0,0,0,0,0,0,0,0,0,0,0,0,0,0,0,0,0,0,0,0,0,0,0,0,0,0,0,0,0,0,0,0,0,0,0,0,0,0,0,0,0,0,0,0,0,0,0,0,0,0,0,0,0,0,-1.8388,-1.8387,0,-1.8338,-1.8338,-1.8337,-1.824,-1.8238,-1.8236,-1.8234,-1.8187,-1.8188,-1.8188,0,0,0,0,0,0,0,0,0,0,0,0,0,-1.8403,-1.8403,-1.8388,-1.8387,-1.8387,-1.8338,-1.8338,-1.8337,-1.824,-1.8238,-1.8236,-1.8234,-1.8187,-1.8188,-1.8188,0,0,0,0,0,0,0,0,0,0,0,0,0,-1.8379,-1.8403,-1.8388,-1.8332,-1.8327,-1.8339,-1.8338,-1.8337,-1.8241,-1.8238,-1.8235,-1.8232,-1.8187,-1.8188,-1.8188,-1.8251,0,0,-1.8191,-1.8191,0,0,0,0,0,0,0,0,-1.8381,-1.8379,-1.8341,-1.8336,-1.833,-1.8292,-1.8326,-1.8308,-1.8242,-1.8274,-1.8234,-1.8231,-1.8225,-1.8222,-1.8219,-1.8249,-1.8247,-1.8191,-1.8191,-1.8192,-1.8192,0,0,0,0,0,0,0,-1.8382,-1.838,-1.8368,-1.8341,-1.8334,-1.8311,-1.8305,-1.8322,-1.8266,-1.8271,-1.8263,-1.8259,-1.8221,-1.8219,-1.8218,-1.8246,-1.8191,-1.8192,-1.8192,-1.8193,-1.8327,-1.833,0,0,0,0,0,0,-1.8392,-1.8382,-1.837,-1.8367,-1.8349,-1.8314,-1.8306,-1.8307,-1.8266,-1.8256,-1.8261,-1.8254,-1.8219,-1.8217,-1.8216,-1.8288,-1.8192,-1.8193,-1.8193,-1.8324,-1.8328,-1.8331,0,0,0,0,0,0,-1.8392,-1.8391,-1.8372,-1.8373,-1.8368,-1.8316,-1.8319,-1.8308,-1.8305,-1.8258,-1.8248,-1.8269,-1.8217,-1.8215,-1.8243,-1.8285,-1.8193,-1.8194,-1.832,-1.8325,-1.8329,-1.8432,0,0,0,0,0,0,-1.8393,-1.8392,-1.8414,-1.8374,-1.8369,-1.8399,-1.8321,-1.8309,-1.8307,-1.8297,-1.8263,-1.8255,-1.8214,-1.8243,-1.8244,-1.8284,-1.8194,-1.8316,-1.8322,-1.8328,-1.8424,-1.8439,-1.8452,0,0,0,0,0,-1.8394,-1.8445,-1.8416,-1.8415,-1.8395,-1.8402,-1.8399,-1.835,-1.831,-1.8333,-1.8303,-1.8256,-1.828,-1.8246,-1.8247,-1.8288,-1.8314,-1.8321,-1.8327,-1.8418,-1.8436,-1.8452,0,0,0,0,0,0,-1.8493,-1.8439,-1.8406,-1.8445,-1.8429,-1.8385,-1.8412,-1.8371,-1.8366,-1.8358,-1.8299,-1.8292,-1.8329,-1.8311,-1.8275,-1.8348,-1.8289,-1.8297,-1.8358,-1.8375,-1.8388,-1.8392,-1.8195,0,0,0,0,0,-1.8519,-1.8528,-1.8481,-1.852,-1.8514,-1.8465,-1.8466,-1.843,-1.8411,-1.8404,-1.8376,-1.836,-1.8365,-1.8369,-1.837,-1.8421,-1.8414,-1.845,-1.8464,-1.8475,-1.8483,-1.8511,-1.8527,-1.8354,-1.8354,-1.8354,0,0,-1.8574,-1.8545,-1.8554,-1.8539,-1.8522,-1.8534,-1.8459,-1.8475,-1.8484,-1.8406,-1.8432,-1.8411,-1.839,-1.8432,-1.8448,-1.8418,-1.8529,-1.8484,-1.8494,-1.8495,-1.852,-1.8536,-1.8551,-1.8359,-1.8358,-1.8357,0,0,-1.8679,-1.8658,-1.8689,-1.8674,-1.8649,-1.8617,-1.8624,-1.8588,-1.8571,-1.8595,-1.8538,-1.8549,-1.8556,-1.8544,-1.8539,-1.8643,-1.86,-1.8645,-1.8717,-1.8745,-1.8759,-1.8771,-1.881,-1.8824,-1.8652,-1.8653,-1.8653,0,-1.875,-1.8765,-1.8711,-1.873,-1.8726,-1.8656,-1.8689,-1.8677,-1.8655,-1.8654,-1.862,-1.863,-1.8611,-1.8649,-1.8675,-1.8672,-1.8681,-1.8649,-1.8761,-1.8773,-1.8783,-1.8819,-1.8834,-1.8658,-1.8658,-1.8657,-1.8657,0,-1.8855,-1.8866,-1.8894,-1.8874,-1.8873,-1.8899,-1.8851,-1.8857,-1.8822,-1.8793,-1.8821,-1.8795,-1.8791,-1.8797,-1.8763,-1.8832,-1.8814,-1.8772,-1.8712,-1.8806,-1.8839,-1.8853,-1.8667,-1.8665,-1.8663,-1.8661,0,0,-1.902,-1.8971,-1.8982,-1.8973,-1.8941,-1.895,-1.8974,-1.8968,-1.8976,-1.8963,-1.8983,-1.8992,-1.8953,-1.8948,-1.8912,-1.8936,-1.9022,-1.8891,-1.889,-1.8918,-1.9099,-1.9132,-1.9148,-1.8993,-1.8996,-1.8998,-1.9101,0,-1.912,-1.9156,-1.911,-1.9157,-1.9168,-1.9103,-1.9124,-1.9108,-1.9083,-1.909,-1.9062,-1.907,-1.9017,-1.9014,-1.9035,-1.9007,-1.9058,-1.8999,-1.9013,-1.9014,-1.9021,-1.9165,-1.92,-1.9298,-1.9113,-1.9116,-1.9117,0,-1.9241,-1.9234,-1.9282,-1.9249,-1.9252,-1.9272,-1.9264,-1.9271,-1.9252,-1.9232,-1.9227,-1.9185,-1.9208,-1.9149,-1.9182,-1.9143,-1.9146,-1.9133,-1.9136,-1.9136,-1.9072,-1.9171,-1.9328,-1.9344,-1.9137,-1.9135,-1.9134,0,-1.9359,-1.9362,-1.9391,-1.9385,-1.9347,-1.9363,-1.9348,-1.9326,-1.9327,-1.9321,-1.9321,-1.9319,-1.9318,-1.9318,-1.9276,-1.9237,-1.9315,-1.9252,-1.93,-1.9302,-1.932,-1.932,-1.9482,-1.9321,-1.932,-1.932,-1.932,0,-1.9475,-1.9508,-1.9444,-1.9463,-1.9498,-1.9445,-1.9482,-1.9461,-1.9442,-1.9457,-1.9401,-1.9416,-1.9359,-1.937,-1.9337,-1.937,-1.937,-1.9356,-1.9347,-1.9362,-1.9364,-1.9363,-1.9356,-1.9324,-1.9323,-1.9322,-1.9322,0,-1.9614,-1.9571,-1.96,-1.9562,-1.9553,-1.9581,-1.9549,-1.9566,-1.9537,-1.9557,-1.9558,-1.9514,-1.9523,-1.9482,-1.9483,-1.9462,-1.9512,-1.9491,-1.9518,-1.9512,-1.9563,-1.956,-1.9732,-1.9752,-1.9577,-1.9579,-1.958,0,-1.9691,-1.9715,-1.9679,-1.9685,-1.9673,-1.9682,-1.9682,-1.9632,-1.9635,-1.9616,-1.9636,-1.964,-1.9641,-1.9659,-1.9628,-1.963,-1.9609,-1.9669,-1.9609,-1.9624,-1.9612,-1.9612,-1.9615,-1.9682,-1.9685,-1.9686,-1.9688,0,-1.9834,-1.9812,-1.9815,-1.9811,-1.9813,-1.9807,-1.9798,-1.9806,-1.9751,-1.9758,-1.9766,-1.9767,-1.9769,-1.9775,-1.9771,-1.9757,-1.9715,-1.9707,-1.9719,-1.9734,-1.9749,-1.9743,-1.9554,-1.9703,-1.9702,-1.9701,-1.97,-1.9699,-1.9945,-1.9964,-1.9942,-1.9947,-1.9935,-1.9928,-1.9942,-1.9916,-1.9921,-1.9918,-1.9889,-1.9903,-1.9886,-1.9876,-1.9867,-1.9878,-1.985,-1.9867,-1.9871,-1.9876,-1.9886,-1.9747,-1.9877,-1.9877,-1.9876,-1.9876,-1.9876,0,-2.0086,-2.0069,-2.0074,-2.0063,-2.0068,-2.0026,-2.0015,-2.0022,-2.0035,-2.0022,-2.0024,-2.0035,-2.0041,-2.0011,-2.0013,-2.0029,-2.0009,-2.0031,-2.003,-2.0028,-1.991,-1.99,-2.0047,-2.0047,-2.0047,-2.0047,-2.0047,-2.0046,-2.016,-2.019,-2.0167,-2.0191,-2.0174,-2.0187,-2.0184,-2.0179,-2.0168,-2.0182,-2.0187,-2.0167,-2.0148,-2.0148,-2.0153,-2.0144,-2.0148,-2.0177,-2.0162,-2.0053,-2.0036,-2.002,-2.0011,-2.0178,-2.0178,-2.0279,-2.028,-2.0281]},{"header":{"parameterUnit":"m.s-1","parameterCategory":1,"la1":30.2991,"la2":30.254,"lo1":-89.0895,"lo2":-89.0444,"dy":0.0017,"dx":0.0017,"nx":28,"ny":28,"refTime":"2024-03-12T09:00:00:Z","depth":0,"parameterNumber":3,"parameterNumberName":"V-component_of_WINDS"},"data":[0,0,0,0,0,0,0,0,0,0,0,0,0,0,0,0,0,0,0,0,0,0,0,0,0,0,0,0,0,0,0,0,0,0,0,0,0,0,0,0,0,0,0,0,0,0,0,0,0,0,0,0,0,0,0,0,0,0,2.0761,2.076,0,2.0742,2.0741,2.0741,2.0762,2.0763,2.0764,2.0764,2.074,2.0738,2.0737,0,0,0,0,0,0,0,0,0,0,0,0,0,2.0811,2.081,2.0761,2.076,2.076,2.0742,2.0741,2.0741,2.0762,2.0763,2.0764,2.0765,2.074,2.0739,2.0737,0,0,0,0,0,0,0,0,0,0,0,0,0,2.079,2.0809,2.0761,2.0768,2.0769,2.0742,2.0741,2.0741,2.0762,2.0763,2.0764,2.0765,2.0741,2.0739,2.0737,2.0699,0,0,2.073,2.0729,0,0,0,0,0,0,0,0,2.0791,2.0788,2.0767,2.0768,2.0768,2.0756,2.075,2.0727,2.0761,2.0764,2.0764,2.0766,2.0744,2.0741,2.0735,2.0698,2.0697,2.073,2.0729,2.0728,2.0727,0,0,0,0,0,0,0,2.0792,2.0789,2.0753,2.0767,2.0768,2.0772,2.077,2.0746,2.0747,2.0764,2.0766,2.0763,2.0744,2.0737,2.0735,2.0697,2.073,2.0728,2.0727,2.0726,2.0629,2.0628,0,0,0,0,0,0,2.0794,2.079,2.0754,2.0752,2.0783,2.077,2.0768,2.0758,2.0748,2.0747,2.0762,2.0764,2.074,2.0737,2.0734,2.069,2.0728,2.0726,2.0725,2.063,2.0629,2.0627,0,0,0,0,0,0,2.0795,2.079,2.0754,2.0772,2.0767,2.0768,2.0757,2.0757,2.075,2.0746,2.0746,2.0755,2.0741,2.0737,2.0708,2.0689,2.0725,2.0723,2.0632,2.063,2.0628,2.0601,0,0,0,0,0,0,2.0796,2.079,2.0777,2.0771,2.0766,2.073,2.0756,2.0756,2.0747,2.075,2.074,2.0739,2.0742,2.0711,2.0706,2.0687,2.0721,2.0634,2.0631,2.0629,2.0603,2.0598,2.0594,0,0,0,0,0,2.0798,2.0769,2.0776,2.0772,2.075,2.0729,2.0726,2.0731,2.0746,2.0732,2.0729,2.0739,2.0693,2.0708,2.0703,2.0682,2.0635,2.0632,2.0629,2.0605,2.0599,2.0594,0,0,0,0,0,0,2.077,2.0768,2.0776,2.0745,2.0737,2.0733,2.0715,2.0724,2.0711,2.0713,2.0719,2.0716,2.0686,2.0682,2.0699,2.0646,2.0666,2.0662,2.065,2.0644,2.0639,2.064,2.072,0,0,0,0,0,2.0761,2.0745,2.0744,2.0716,2.0712,2.0714,2.0705,2.071,2.0702,2.0698,2.0694,2.0683,2.0667,2.0655,2.0639,2.0603,2.0601,2.0587,2.0582,2.0578,2.0573,2.0554,2.0548,2.0618,2.0618,2.0618,0,0,2.074,2.0737,2.0727,2.0711,2.0705,2.0688,2.0711,2.0692,2.0678,2.0694,2.0668,2.0664,2.0653,2.0621,2.0607,2.0616,2.0554,2.0574,2.0571,2.0569,2.055,2.0544,2.0538,2.0616,2.0616,2.0616,0,0,2.0694,2.0691,2.0667,2.0662,2.0655,2.0657,2.0651,2.0646,2.0645,2.0619,2.063,2.0614,2.0585,2.0577,2.0569,2.0523,2.0531,2.0517,2.0491,2.0472,2.0467,2.0462,2.0444,2.0438,2.0513,2.0513,2.0513,0,2.0668,2.0644,2.0654,2.0634,2.0626,2.0643,2.0619,2.0613,2.0599,2.0593,2.0605,2.057,2.0564,2.053,2.0519,2.0512,2.0505,2.0517,2.0467,2.0462,2.0458,2.0441,2.0435,2.0512,2.0512,2.0512,2.0512,0,2.0614,2.0597,2.0579,2.0568,2.0559,2.0537,2.0542,2.0531,2.0537,2.0538,2.0511,2.0505,2.0488,2.0481,2.0486,2.0448,2.0454,2.0467,2.0486,2.0449,2.0434,2.0427,2.0509,2.051,2.051,2.0511,0,0,2.0547,2.0544,2.0537,2.0532,2.0526,2.0513,2.0492,2.0478,2.0468,2.0459,2.0441,2.0417,2.0429,2.042,2.0425,2.0408,2.0371,2.0422,2.0422,2.0412,2.0328,2.0318,2.0311,2.0378,2.0377,2.0376,2.0329,0,2.05,2.0465,2.0474,2.0439,2.0423,2.0439,2.0421,2.0415,2.0415,2.0401,2.0401,2.0384,2.0401,2.0396,2.0381,2.0379,2.0354,2.0383,2.0359,2.0358,2.036,2.0303,2.0292,2.0248,2.0323,2.0322,2.0321,0,2.044,2.0431,2.0395,2.0393,2.0386,2.037,2.0358,2.0345,2.0338,2.034,2.0331,2.034,2.0318,2.034,2.0309,2.0328,2.032,2.0318,2.0316,2.0312,2.0336,2.0297,2.0234,2.0227,2.0312,2.0313,2.0313,0,2.0394,2.0373,2.0349,2.0345,2.0341,2.033,2.0327,2.0322,2.0314,2.0303,2.0298,2.0284,2.0276,2.0265,2.0269,2.0285,2.0238,2.026,2.0237,2.0237,2.0225,2.0225,2.0159,2.0222,2.0222,2.0222,2.0222,0,2.034,2.0317,2.0328,2.0313,2.0288,2.0298,2.0272,2.0272,2.0268,2.0252,2.0265,2.025,2.0257,2.0242,2.0245,2.022,2.0216,2.0216,2.0216,2.0214,2.0214,2.0207,2.0209,2.022,2.022,2.0221,2.0221,0,2.0283,2.029,2.0265,2.0265,2.0265,2.0246,2.0245,2.0231,2.0233,2.0213,2.0209,2.0212,2.0196,2.02,2.0181,2.0183,2.015,2.0155,2.0153,2.0154,2.013,2.0132,2.0056,2.0046,2.0116,2.0116,2.0115,0,2.0248,2.0231,2.023,2.0221,2.0219,2.0205,2.0197,2.0206,2.0197,2.019,2.0176,2.0161,2.0149,2.0122,2.0121,2.0107,2.0111,2.0086,2.0109,2.0107,2.011,2.011,2.0108,2.008,2.0079,2.0079,2.0078,0,2.0183,2.0188,2.0177,2.0167,2.0158,2.015,2.0144,2.0136,2.0145,2.0134,2.0118,2.011,2.0092,2.0076,2.0064,2.006,2.007,2.0071,2.0065,2.0061,2.006,2.006,2.0139,2.0072,2.0073,2.0073,2.0074,2.0074,2.0135,2.0121,2.0119,2.0106,2.0103,2.0097,2.0084,2.0086,2.0073,2.0061,2.0067,2.0049,2.0043,2.0028,2.0023,2.0008,2.0017,2.0009,2.0006,2.0003,2.0,2.0064,2.0006,2.0006,2.0006,2.0006,2.0006,0,2.0071,2.0071,2.0059,2.0051,2.0041,2.0054,2.0048,2.0038,2.0023,2.0018,2.0007,1.9989,1.9975,1.9974,1.9961,1.9949,1.9953,1.9945,1.9945,1.9944,1.9993,1.9999,1.9942,1.9942,1.9942,1.9942,1.9942,1.9942,2.0036,2.0013,2.0018,1.9993,1.9993,1.9977,1.9972,1.9967,1.9963,1.9943,1.9932,1.9933,1.9929,1.9916,1.9903,1.9903,1.9897,1.9887,1.9888,1.9934,1.994,1.9946,1.9952,1.9886,1.9886,1.9841,1.984,1.984]}]]